Location: Unspecified
(41.1637°N, 24.2901°E)
Time: 15:23:32
(UTC+01:00)

ISS - Pass Details

Date: 24 November 2020
Orbit: 418 x 421 km, 51.6° (Epoch: 29 November)

Event Time Altitude Azimuth Distance (km) Brightness Sun altitude
Rises 16:31:40 0° 241° (WSW) 2,351 2.5 -6.7°
Reaches altitude 10° 16:33:46 10° 245° (WSW) 1,491 0.8 -7.1°
Maximum altitude 16:37:05 61° 327° (NNW) 476 -3.4 -7.6°
Drops below altitude 10° 16:40:25 10° 49° (NE) 1,498 -1.5 -8.2°
Enters shadow 16:40:28 10° 49° (NE) 1,518 -1.5 -8.2°
